TimeEDT,TemperatureF,Dew PointF,Humidity,Sea Level PressureIn,VisibilityMPH,Wind Direction,Wind SpeedMPH,Gust SpeedMPH,PrecipitationIn,Events,Conditions,WindDirDegrees,DateUTC
12:56 AM,68.0,63.0,84,30.01,8.0,Calm,Calm,-,N/A,,Clear,0,2013-08-23 04:56:00
1:56 AM,64.9,62.1,90,30.01,4.0,Calm,Calm,-,N/A,,Mostly Cloudy,0,2013-08-23 05:56:00
2:56 AM,66.9,63.0,87,30.01,6.0,North,3.5,-,0.01,,Mostly Cloudy,10,2013-08-23 06:56:00
3:24 AM,64.4,62.6,94,30.05,2.5,Calm,Calm,-,N/A,,Partly Cloudy,0,2013-08-23 07:24:00
3:33 AM,64.4,62.6,94,30.04,3.0,Calm,Calm,-,N/A,,Scattered Clouds,0,2013-08-23 07:33:00
3:56 AM,66.0,63.0,90,30.00,4.0,Calm,Calm,-,N/A,,Mostly Cloudy,0,2013-08-23 07:56:00
4:35 AM,64.4,62.6,94,30.03,2.5,NNE,3.5,-,N/A,,Clear,30,2013-08-23 08:35:00
4:46 AM,66.2,62.6,88,30.03,4.0,NNE,3.5,-,N/A,,Clear,30,2013-08-23 08:46:00
4:56 AM,66.0,62.1,87,30.00,6.0,NNE,3.5,-,N/A,,Partly Cloudy,20,2013-08-23 08:56:00
5:37 AM,64.4,60.8,88,30.05,1.8,Calm,Calm,-,N/A,,Overcast,0,2013-08-23 09:37:00
5:56 AM,64.0,61.0,90,30.02,1.8,Calm,Calm,-,N/A,,Mostly Cloudy,0,2013-08-23 09:56:00
6:03 AM,64.4,62.6,94,30.05,2.5,Calm,Calm,-,N/A,,Mostly Cloudy,0,2013-08-23 10:03:00
6:12 AM,64.4,62.6,94,30.06,3.0,Calm,Calm,-,N/A,,Scattered Clouds,0,2013-08-23 10:12:00
6:31 AM,64.4,62.6,94,30.06,1.8,Calm,Calm,-,N/A,,Mostly Cloudy,0,2013-08-23 10:31:00
6:56 AM,64.9,61.0,87,30.04,2.5,Calm,Calm,-,N/A,,Mostly Cloudy,0,2013-08-23 10:56:00
7:03 AM,64.4,60.8,88,30.07,3.0,Calm,Calm,-,N/A,,Mostly Cloudy,0,2013-08-23 11:03:00
7:56 AM,64.9,60.1,84,30.06,8.0,Calm,Calm,-,N/A,,Mostly Cloudy,0,2013-08-23 11:56:00
8:56 AM,66.0,60.1,81,30.07,9.0,NNE,4.6,-,N/A,,Mostly Cloudy,20,2013-08-23 12:56:00
9:56 AM,66.9,59.0,76,30.08,10.0,NE,4.6,-,N/A,,Clear,40,2013-08-23 13:56:00
10:56 AM,71.1,60.1,68,30.09,10.0,Variable,3.5,-,N/A,,Scattered Clouds,0,2013-08-23 14:56:00
11:56 AM,75.0,61.0,62,30.09,10.0,Variable,5.8,-,N/A,,Partly Cloudy,0,2013-08-23 15:56:00
12:56 PM,75.0,54.0,48,30.09,10.0,North,8.1,-,N/A,,Scattered Clouds,360,2013-08-23 16:56:00
1:56 PM,79.0,54.0,42,30.08,10.0,NE,5.8,-,N/A,,Scattered Clouds,40,2013-08-23 17:56:00
2:56 PM,78.1,55.0,45,30.07,10.0,WSW,4.6,-,N/A,,Partly Cloudy,240,2013-08-23 18:56:00
3:56 PM,75.9,53.1,45,30.07,10.0,North,5.8,-,N/A,,Mostly Cloudy,10,2013-08-23 19:56:00
4:56 PM,79.0,53.1,40,30.06,10.0,NNE,9.2,-,N/A,,Scattered Clouds,20,2013-08-23 20:56:00
5:56 PM,77.0,52.0,42,30.06,10.0,NE,6.9,-,N/A,,Clear,40,2013-08-23 21:56:00
6:56 PM,75.9,52.0,43,30.07,10.0,NNE,6.9,-,N/A,,Clear,30,2013-08-23 22:56:00
7:56 PM,72.0,52.0,49,30.10,10.0,NNE,9.2,-,N/A,,Mostly Cloudy,20,2013-08-23 23:56:00
8:56 PM,66.9,52.0,59,30.12,10.0,NNE,6.9,-,N/A,,Clear,30,2013-08-24 00:56:00
9:56 PM,63.0,52.0,67,30.16,10.0,ENE,4.6,-,N/A,,Clear,70,2013-08-24 01:56:00
10:56 PM,62.1,51.1,67,30.17,10.0,NNE,6.9,-,N/A,,Clear,30,2013-08-24 02:56:00
11:56 PM,60.1,52.0,75,30.18,10.0,East,3.5,-,N/A,,Clear,80,2013-08-24 03:56:00